Regional Weather Roundup
Issued by NWS Little Rock, AR

Home | Current Version | Previous Version | Graphics & Text | Print | Product List | Glossary On
Versions: 1 2 3 4 5 6 7 8 9 10 11 12 13 14 15 16 17 18 19 20 21 22 23 24 25 26 27 28 29 30 31 32 33 34 35 36 37 38 39 40 41 42 43 44 45 46 47 48 49 50
000
ASUS44 KLZK 251205
RWRLZK

WEATHER ROUNDUP FOR ARKANSAS
NATIONAL WEATHER SERVICE LITTLE ROCK AR
700 AM CDT MON MAY 25 2015

NOTE: "FAIR" INDICATES FEW OR NO CLOUDS BELOW 12,000 FEET WITH NO
SIGNIFICANT WEATHER AND/OR OBSTRUCTIONS TO VISIBILITY.

ARZ001-003-010-029-251300-
NORTHWEST ARKANSAS

CITY           SKY/WX    TMP DP  RH WIND       PRES   REMARKS
FAYETTEVILLE   PTCLDY    63  63 100 SE3       29.96S
6HR MIN TEMP:  58; 6HR MAX TEMP:  63;

FORT SMITH     FOG       64  63  96 NE3       29.95R VSB 1/2
6HR MIN TEMP:  64; 6HR MAX TEMP:  64;

HARRISON       PTSUNNY   64  63  96 SE3       29.99R
6HR MIN TEMP:  61; 6HR MAX TEMP:  65;

BENTONVILLE    PTCLDY   N/A N/A N/A SE3       29.96R
ROGERS         PTCLDY    63  62  97 SE6       29.97R
6HR MIN TEMP:  59; 6HR MAX TEMP:  63;

SILOAM SPGS    CLEAR     63  57  82 SE6       29.96R
6HR MIN TEMP:  57; 6HR MAX TEMP:  63;

HIGHFILL       MOCLDY    61  60  97 S3        29.95R FOG
6HR MIN TEMP:  57; 6HR MAX TEMP:  62;

SPRINGDALE     PTCLDY    63  63 100 SE6       29.98R
$$

ARZ004-005-016-251300-
NORTH CENTRAL ARKANSAS

CITY           SKY/WX    TMP DP  RH WIND       PRES   REMARKS
BATESVILLE     CLOUDY    70  66  88 S5        30.01R
6HR MIN TEMP:  68; 6HR MAX TEMP:  70; 6HR PCP:  0.19;

FLIPPIN        CLOUDY    64  63  94 CALM      29.97R
6HR MIN TEMP:  63; 6HR MAX TEMP:  68;

MTN HOME       CLOUDY    66  66 100 SE5       29.98R
6HR MIN TEMP:  63; 6HR MAX TEMP:  67;

$$

ARZ040-041-251300-
WEST CENTRAL ARKANSAS

CITY           SKY/WX    TMP DP  RH WIND       PRES   REMARKS
MENA           CLOUDY    70  70 100 CALM      29.98S
MOUNT IDA      CLOUDY    70  65  84 CALM      29.97R
6HR MIN TEMP:  68; 6HR MAX TEMP:  72; 6HR PCP:  0.01;

$$

ARZ009-017-025-026-028-251300-
NORTHEAST ARKANSAS

CITY           SKY/WX    TMP DP  RH WIND       PRES   REMARKS
CORNING        PTSUNNY   68  68 100 S9        30.03R
JONESBORO      CLOUDY    68  67  96 S9        30.03R
6HR MIN TEMP:  67; 6HR MAX TEMP:  69; 6HR PCP:  0.11;

NEWPORT        CLOUDY    71  70  97 S13       30.02S
6HR MIN TEMP:  69; 6HR MAX TEMP:  71; 6HR PCP: TRACE;

WALNUT RIDGE   PTSUNNY   70  66  88 S9        30.02R
6HR MIN TEMP:  70; 6HR MAX TEMP:  70; 6HR PCP:  0.02;

BLYTHEVILLE    CLOUDY    69  50  51 S9        30.04R
6HR MIN TEMP:  69; 6HR MAX TEMP:  70; 6HR PCP:  0.54;

$$

ARZ022-023-033-042-044-251300-
CENTRAL ARKANSAS

CITY           SKY/WX    TMP DP  RH WIND       PRES   REMARKS
LITTLE ROCK    CLOUDY    71  67  87 S7        30.01R
6HR MIN TEMP:  70; 6HR MAX TEMP:  71;

N LITTLE ROCK    N/A     69  69  99 SW7       30.01R
6HR MIN TEMP:  67; 6HR MAX TEMP:  70;

JACKSONVILLE   CLOUDY    71  70  99 S7        30.00S
6HR MIN TEMP:  68; 6HR MAX TEMP:  71;

SEARCY         CLOUDY    70  69  97 S6        30.02S
6HR MIN TEMP:  69; 6HR MAX TEMP:  70; 6HR PCP:  0.04;

HOT SPRINGS    CLOUDY    70  67  90 S3        30.00R
6HR MIN TEMP:  68; 6HR MAX TEMP:  70;

RUSSELLVILLE   CLOUDY    69  67  93 SE3       29.98S
6HR MIN TEMP:  68; 6HR MAX TEMP:  70; 6HR PCP:  0.01;

CLINTON        PTSUNNY   68  68 100 S3        30.01S
$$

ARZ036-251300-
EAST ARKANSAS

CITY           SKY/WX    TMP DP  RH WIND       PRES   REMARKS
WEST MEMPHIS   CLOUDY    68  68 100 S9        30.04R
6HR MIN TEMP:  68; 6HR MAX TEMP:  69; 6HR PCP:  0.11;

$$

ARZ050-053-066-070-073-251300-
SOUTHWEST ARKANSAS

CITY           SKY/WX    TMP DP  RH WIND       PRES   REMARKS
ARKADELPHIA    CLOUDY    70  70 100 S5        30.01R
6HR MIN TEMP:  69; 6HR MAX TEMP:  70;

CAMDEN         CLOUDY    68  66  94 CALM      30.01R FOG
TEXARKANA      CLOUDY    70  67  90 S6        29.99R
6HR MIN TEMP:  69; 6HR MAX TEMP:  70;

EL DORADO      CLOUDY    69  67  93 SE5       30.01R
6HR MIN TEMP:  68; 6HR MAX TEMP:  70;

DE QUEEN       CLOUDY    70  68  93 S6        29.96R
6HR MIN TEMP:  70; 6HR MAX TEMP:  71;

$$

ARZ056-057-069-251300-
SOUTHEAST ARKANSAS

CITY           SKY/WX    TMP DP  RH WIND       PRES   REMARKS
PINE BLUFF     CLOUDY    70  68  93 SE7       30.01S
6HR MIN TEMP:  69; 6HR MAX TEMP:  71;

STUTTGART      CLOUDY    70  66  88 MISG      30.02S
6HR MIN TEMP:  70; 6HR MAX TEMP:  72;

MONTICELLO     CLOUDY    70  68  93 S6        30.03R
6HR MIN TEMP:  70; 6HR MAX TEMP:  71;


$$




USA.gov is the U.S. government's official web portal to all federal, state and local government web resources and services.